Kearney, NE

3:08 AM CDT on May 27, 2017 (GMT -0500)
Kearney Municipal

Weather History for KEAR - November, 2012

Change the Weather History Date:

Tuesday, November 6, 2012

  Actual Average Record
Temperature  
Mean Temperature 46 °F 42 °F  
Max Temperature 61 °F 55 °F 81 °F (1934)
Min Temperature 30 °F 29 °F 6 °F (1959)
Degree Days  
Heating Degree Days 19 23  
Month to date heating degree days 132  
Cooling Degree Days 0 0  
Month to date cooling degree days 0  
Moisture  
Dew Point 25 °F    
Average Humidity 52    
Maximum Humidity 82    
Minimum Humidity 21    
Precipitation  
Precipitation 0.00 in - 0.54 in (1946)
Sea Level Pressure  
Sea Level Pressure 30.11 in    
Wind  
Wind Speed 13 mph (WNW)    
Max Wind Speed 27 mph    
Max Gust Speed 37 mph    
Visibility 10 miles    
Events      
T = Trace of Precipitation, MM = Missing Value Source: NWS Daily Summary

Daily Weather History Graph

Daily Weather History Graph

Search for Another Location

Airport or City:

Trip Planner

Search our weather history database for the weather conditions in past years. The results will help you decide how hot, cold, wet, or windy it might be!

Date:

Astronomy

Nov. 06, 2012 Rise Set
Actual Time 7:12 AM CST 5:25 PM CST
Civil Twilight 6:44 AM CST 5:54 PM CST
Nautical Twilight 6:11 AM CST 6:27 PM CST
Astronomical Twilight 5:39 AM CST 6:59 PM CST
Moon No Moon Rise 1:05 PM CST (11/6)
Length of Visible Light 11h 10m
Length of Day
10h 13m
Waning Gibbous, 53% of the Moon is Illuminated
Nov 6
Waning Gibbous
Nov 6
Last Quarter
Nov 13
New
Nov 20
First Quarter
Nov 28
Full

Hourly Weather History & Observations

Time (CST) Temp. Windchill Dew Point Humidity Pressure Visibility Wind Dir Wind Speed Gust Speed Precip Events Conditions
12:15 AM 39.2 °F 31.2 °F 32.0 °F 75% 30.03 in 10.0 mi South 13.8 mph - N/A   Mostly Cloudy
12:35 AM 39.2 °F 31.6 °F 32.0 °F 75% 30.03 in 10.0 mi South 12.7 mph - N/A   Scattered Clouds
12:55 AM 39.2 °F 31.2 °F 32.0 °F 75% 30.02 in 10.0 mi South 13.8 mph - N/A   Clear
1:15 AM 39.2 °F 33.0 °F 32.0 °F 75% 30.02 in 10.0 mi SSW 9.2 mph - N/A   Clear
1:35 AM 39.2 °F 32.5 °F 32.0 °F 75% 30.01 in 10.0 mi SSW 10.4 mph - N/A   Clear
1:55 AM 39.2 °F 33.0 °F 32.0 °F 75% 30.01 in 10.0 mi SSW 9.2 mph - N/A   Clear
2:15 AM 39.2 °F 35.0 °F 32.0 °F 75% 30.03 in 10.0 mi SW 5.8 mph - N/A   Scattered Clouds
2:35 AM 39.2 °F 35.0 °F 32.0 °F 75% 30.05 in 10.0 mi NNW 5.8 mph - N/A   Mostly Cloudy
2:55 AM 39.2 °F - 32.0 °F 75% 30.04 in 10.0 mi Calm Calm - N/A   Scattered Clouds
3:15 AM 37.4 °F 32.8 °F 30.2 °F 75% 30.02 in 10.0 mi SW 5.8 mph - N/A   Scattered Clouds
3:35 AM 37.4 °F 32.8 °F 30.2 °F 75% 30.02 in 10.0 mi SW 5.8 mph - N/A   Scattered Clouds
3:55 AM 39.2 °F 35.0 °F 32.0 °F 75% 30.02 in 10.0 mi SW 5.8 mph - N/A   Mostly Cloudy
4:15 AM 39.2 °F 35.0 °F 32.0 °F 75% 30.01 in 10.0 mi WSW 5.8 mph - N/A   Overcast
4:35 AM 41.0 °F 35.8 °F 33.8 °F 76% 30.02 in 10.0 mi West 8.1 mph - N/A   Mostly Cloudy
4:55 AM 41.0 °F 35.8 °F 33.8 °F 76% 30.02 in 10.0 mi West 8.1 mph - N/A   Mostly Cloudy
5:15 AM 42.8 °F 38.0 °F 33.8 °F 70% 30.02 in 10.0 mi WNW 8.1 mph - N/A   Mostly Cloudy
5:35 AM 42.8 °F 37.5 °F 33.8 °F 70% 30.03 in 10.0 mi WNW 9.2 mph - N/A   Scattered Clouds
5:55 AM 41.0 °F 35.8 °F 33.8 °F 76% 30.05 in 10.0 mi WNW 8.1 mph - N/A   Partly Cloudy
6:15 AM 41.0 °F 33.9 °F 33.8 °F 76% 30.05 in 10.0 mi WNW 12.7 mph - N/A   Clear
6:35 AM 42.8 °F 36.6 °F 35.6 °F 76% 30.07 in 10.0 mi NW 11.5 mph - N/A   Clear
6:55 AM 44.6 °F 38.8 °F 35.6 °F 71% 30.09 in 10.0 mi NW 11.5 mph - N/A   Clear
7:15 AM 44.6 °F 38.8 °F 33.8 °F 66% 30.11 in 10.0 mi NW 11.5 mph - N/A   Clear
7:35 AM 44.6 °F 38.1 °F 30.2 °F 57% 30.12 in 10.0 mi NW 13.8 mph 23.0 mph N/A   Clear
7:55 AM 42.8 °F 37.5 °F 30.2 °F 61% 30.13 in 10.0 mi WNW 9.2 mph - N/A   Clear
8:15 AM 44.6 °F 39.7 °F 32.0 °F 61% 30.14 in 10.0 mi NW 9.2 mph - N/A   Clear
8:35 AM 44.6 °F 38.8 °F 32.0 °F 61% 30.15 in 10.0 mi WNW 11.5 mph - N/A   Clear
8:55 AM 46.4 °F 40.1 °F 30.2 °F 53% 30.16 in 10.0 mi NW 15.0 mph - N/A   Clear
9:15 AM 48.2 °F - 28.4 °F 46% 30.16 in 10.0 mi NW 16.1 mph 23.0 mph N/A   Clear
9:35 AM 48.2 °F - 28.4 °F 46% 30.17 in 10.0 mi NW 18.4 mph - N/A   Clear
9:55 AM 50.0 °F - 28.4 °F 43% 30.17 in 10.0 mi NW 19.6 mph 26.5 mph N/A   Clear
10:15 AM 51.8 °F - 26.6 °F 38% 30.17 in 10.0 mi NW 20.7 mph 27.6 mph N/A   Clear
10:35 AM 53.6 °F - 26.6 °F 35% 30.17 in 10.0 mi NW 19.6 mph 26.5 mph N/A   Clear
10:55 AM 53.6 °F - 24.8 °F 33% 30.17 in 10.0 mi NW 21.9 mph 25.3 mph N/A   Clear
11:15 AM 55.4 °F - 21.2 °F 26% 30.16 in 10.0 mi NW 21.9 mph 29.9 mph N/A   Clear
11:35 AM 55.4 °F - 23.0 °F 29% 30.15 in 10.0 mi NW 18.4 mph 27.6 mph N/A   Clear
11:55 AM 57.2 °F - 21.2 °F 25% 30.14 in 10.0 mi WNW 19.6 mph 29.9 mph N/A   Clear
12:15 PM 57.2 °F - 21.2 °F 25% 30.13 in 10.0 mi NW 20.7 mph 31.1 mph N/A   Clear
12:35 PM 57.2 °F - 21.2 °F 25% 30.12 in 10.0 mi NW 25.3 mph 33.4 mph N/A   Clear
12:55 PM 59.0 °F - 21.2 °F 23% 30.12 in 10.0 mi WNW 23.0 mph 31.1 mph N/A   Clear
1:15 PM 59.0 °F - 21.2 °F 23% 30.11 in 10.0 mi NW 29.9 mph 34.5 mph N/A   Clear
1:35 PM 60.8 °F - 23.0 °F 23% 30.11 in 10.0 mi NW 24.2 mph 29.9 mph N/A   Clear
1:55 PM 59.0 °F - 21.2 °F 23% 30.11 in 10.0 mi WNW 26.5 mph 36.8 mph N/A   Clear
2:15 PM 60.8 °F - 21.2 °F 22% 30.10 in 10.0 mi WNW 26.5 mph 40.3 mph N/A   Clear
2:35 PM 60.8 °F - 21.2 °F 22% 30.10 in 10.0 mi NW 25.3 mph 36.8 mph N/A   Clear
2:55 PM 60.8 °F - 21.2 °F 22% 30.10 in 10.0 mi WNW 25.3 mph 32.2 mph N/A   Clear
3:15 PM 60.8 °F - 21.2 °F 22% 30.10 in 10.0 mi NW 20.7 mph 32.2 mph N/A   Clear
3:35 PM 60.8 °F - 19.4 °F 20% 30.10 in 10.0 mi NW 20.7 mph 32.2 mph N/A   Clear
3:55 PM 59.0 °F - 19.4 °F 22% 30.11 in 10.0 mi NW 23.0 mph 27.6 mph N/A   Clear
4:15 PM 59.0 °F - 19.4 °F 22% 30.11 in 10.0 mi NW 23.0 mph 29.9 mph N/A   Clear
4:35 PM 57.2 °F - 19.4 °F 23% 30.11 in 10.0 mi NW 19.6 mph 26.5 mph N/A   Clear
4:55 PM 57.2 °F - 19.4 °F 23% 30.11 in 10.0 mi NW 19.6 mph 23.0 mph N/A   Clear
5:15 PM 55.4 °F - 19.4 °F 25% 30.11 in 10.0 mi NW 15.0 mph - N/A   Clear
5:35 PM 53.6 °F - 19.4 °F 26% 30.12 in 10.0 mi NW 13.8 mph - N/A   Clear
5:55 PM 51.8 °F - 19.4 °F 28% 30.13 in 10.0 mi NW 12.7 mph - N/A   Clear
6:15 PM 51.8 °F - 19.4 °F 28% 30.13 in 10.0 mi NNW 10.4 mph - N/A   Clear
6:35 PM 48.2 °F - 19.4 °F 32% 30.14 in 10.0 mi NNW 6.9 mph - N/A   Clear
6:55 PM 46.4 °F 43.5 °F 19.4 °F 34% 30.15 in 10.0 mi NNW 5.8 mph - N/A   Clear
7:15 PM 46.4 °F 42.9 °F 19.4 °F 34% 30.15 in 10.0 mi NW 6.9 mph - N/A   Clear
7:35 PM 41.0 °F 36.4 °F 19.4 °F 42% 30.15 in 10.0 mi NW 6.9 mph - N/A   Clear
7:55 PM 39.2 °F 35.0 °F 17.6 °F 42% 30.15 in 10.0 mi NW 5.8 mph - N/A   Clear
8:15 PM 41.0 °F 37.1 °F 19.4 °F 42% 30.15 in 10.0 mi NW 5.8 mph - N/A   Clear
8:35 PM 37.4 °F 32.1 °F 17.6 °F 45% 30.15 in 10.0 mi NW 6.9 mph - N/A   Clear
8:55 PM 37.4 °F 31.4 °F 17.6 °F 45% 30.15 in 10.0 mi WNW 8.1 mph - N/A   Clear
9:15 PM 35.6 °F 29.9 °F 17.6 °F 48% 30.15 in 10.0 mi NW 6.9 mph - N/A   Clear
9:35 PM 33.8 °F 27.7 °F 17.6 °F 52% 30.15 in 10.0 mi WNW 6.9 mph - N/A   Clear
9:55 PM 33.8 °F 27.0 °F 19.4 °F 56% 30.15 in 10.0 mi WNW 8.1 mph - N/A   Clear
10:15 PM 33.8 °F 27.7 °F 19.4 °F 56% 30.15 in 10.0 mi WNW 6.9 mph - N/A   Clear
10:35 PM 35.6 °F 31.7 °F 19.4 °F 52% 30.15 in 10.0 mi NW 4.6 mph - N/A   Clear
10:55 PM 33.8 °F 27.7 °F 19.4 °F 56% 30.15 in 10.0 mi WNW 6.9 mph - N/A   Clear
11:15 PM 35.6 °F 30.7 °F 19.4 °F 52% 30.14 in 10.0 mi NW 5.8 mph - N/A   Clear
11:35 PM 33.8 °F 26.4 °F 19.4 °F 56% 30.15 in 10.0 mi West 9.2 mph - N/A   Clear
11:55 PM 37.4 °F 31.4 °F 21.2 °F 52% 30.15 in 10.0 mi WSW 8.1 mph - N/A   Clear